Location: Aranbee
(34.0885°N, 118.2342°W)
Time: 09:45:55
(UTC+00:00)

Courier 1B Rocket - Pass Details

Date: 02 December 2020
Orbit: 920 x 1202 km, 28.2° (Epoch: 27 January)

Event Time Altitude Azimuth Distance (km) Brightness Sun altitude
Rises 09:41:14 0° 207° (SSW) 3,928 - -61.3°
Reaches altitude 10° 09:45:03 10° 189° (S) 3,021 - -60.6°
Maximum altitude 09:49:40 17° 150° (SSE) 2,555 - -59.6°
Drops below altitude 10° 09:54:23 10° 112° (ESE) 3,110 - -58.7°
Exits shadow 09:56:09 - 103° (ESE) 3,508 8.2 -58.3°
Sets 09:58:23 0° 94° (E) 4,092 8.7 -57.9°
